Overview Statistics Trail Chart Weather Telemetry Raw packets
 

This is the latest recevied weather packets stored in our database for station/object KV9E. If no packets are shown the sender has not sent any weather packets the latest 10 day(s).

<< 21 22 23 24 25 26 27 >>
Time Temp. Humidity Pressure Rain* Wind** Luminosity Snow
1788470674 35° C 52% 1015.9 hPa 0 mm - 321 W/m² -
1788470368 35° C 52% 1016 hPa 0 mm - 357 W/m² -
1788470064 34.44° C 50% 1016 hPa 0 mm - 334 W/m² -
1788469760 35° C 55% 1016 hPa 0 mm - 336 W/m² -
1788469459 34.44° C 50% 1015.9 hPa 0 mm - 359 W/m² -
1788469155 35° C 49% 1016.1 hPa 0 mm - 355 W/m² -
1788468855 34.44° C 51% 1015.9 hPa 0 mm - 369 W/m² -
1788468549 35° C 53% 1016 hPa 0 mm - 399 W/m² -
1788468245 34.44° C 52% 1016.1 hPa 0 mm - 400 W/m² -
1788467941 34.44° C 50% 1016.1 hPa 0 mm - 419 W/m² -
1788467636 35° C 50% 1016 hPa 0 mm - 449 W/m² -
1788467335 35° C 51% 1016.5 hPa 0 mm - 468 W/m² -
1788467032 35° C 50% 1016.5 hPa 0 mm - 464 W/m² -
1788466732 35° C 48% 1016.4 hPa 0 mm - 476 W/m² -
1788466427 35° C 49% 1016.4 hPa 0 mm - 498 W/m² -
1788466126 35° C 51% 1016.5 hPa 0 mm - 496 W/m² -
1788465821 35° C 49% 1016.4 hPa 0 mm - 517 W/m² -
1788465516 35.56° C 50% 1016.9 hPa 0 mm - 506 W/m² -
1788465213 35° C 49% 1016.9 hPa 0 mm - 471 W/m² -
1788464906 35° C 52% 1016.8 hPa 0 mm - 509 W/m² -
1788464603 35° C 51% 1016.5 hPa 0 mm - 524 W/m² -
1788464298 33.89° C 52% 1016.9 hPa 0 mm - 524 W/m² -
1788463994 33.89° C 52% 1017 hPa 0 mm - 531 W/m² -
1788463689 34.44° C 50% 1016.9 hPa 0 mm - 542 W/m² -
1788463385 34.44° C 51% 1016.9 hPa 0 mm - 544 W/m² -

* Rain latest hour (hover to see other rain measurements)
** Current wind speed in m/s (hover to see current wind gust speed)